Tracking 19192 objects as of 20-Jun-2018
HD Live streaming from Space Station
objects crossing your sky now

ARIANE 44LP DEB

Track ARIANE 44LP DEB now!
10-day predictions


NORAD ID: 27662
Int'l Code: 1991-015N
Perigee: 361.7 km
Apogee: 23,956.4 km
Inclination: 5.8 °
Period: 418.4 minutes
Semi major axis: 18530 km
RCS: 0.2322 m2 (medium)
Launch date: March 2, 1991
Source: France (FR)
Launch site: FRENCH GUIANA (FRGUI)

Note: This is SATELLITE DEBRIS
aabbcc
Your satellite tracking list
Your tracking list is empty




NASA's NSSDC Master Catalog

Two Line Element Set (TLE):
1 27662U 91015N   18170.46563784 +.00001517 +00000-0 +12575-2 0  9995
2 27662 005.8099 281.3428 6366620 148.0139 275.1992 03.44182695073073
Source of the keplerian elements: AFSPC